TimeEST,TemperatureF,Dew PointF,Humidity,Sea Level PressureIn,VisibilityMPH,Wind Direction,Wind SpeedMPH,Gust SpeedMPH,PrecipitationIn,Events,Conditions,WindDirDegrees,DateUTC
12:15 AM,25.3,16.3,69,30.10,10.0,North,6.9,-,N/A,,Overcast,10,2013-03-03 05:15:00
12:35 AM,25.0,16.0,69,30.10,10.0,NNE,6.9,-,N/A,,Overcast,30,2013-03-03 05:35:00
1:15 AM,23.7,15.8,72,30.10,10.0,NNE,5.8,-,N/A,,Overcast,30,2013-03-03 06:15:00
1:35 AM,22.6,15.4,74,30.10,10.0,NE,4.6,-,N/A,,Scattered Clouds,50,2013-03-03 06:35:00
1:55 AM,22.5,14.9,73,30.09,10.0,NE,3.5,-,N/A,,Mostly Cloudy,40,2013-03-03 06:55:00
2:15 AM,22.1,15.1,74,30.09,10.0,NE,3.5,-,N/A,,Overcast,50,2013-03-03 07:15:00
2:35 AM,22.1,15.4,76,30.09,10.0,Calm,Calm,-,N/A,,Overcast,0,2013-03-03 07:35:00
2:55 AM,21.9,14.9,74,30.09,10.0,NE,3.5,-,N/A,,Mostly Cloudy,50,2013-03-03 07:55:00
3:15 AM,21.6,14.5,74,30.08,10.0,Calm,Calm,-,N/A,,Scattered Clouds,0,2013-03-03 08:15:00
3:34 AM,20.8,14.5,77,30.07,10.0,Calm,Calm,-,N/A,,Scattered Clouds,0,2013-03-03 08:34:00
3:55 AM,20.7,14.4,77,30.07,10.0,Calm,Calm,-,N/A,,Clear,0,2013-03-03 08:55:00
4:15 AM,18.9,14.4,83,30.07,10.0,Calm,Calm,-,N/A,,Clear,0,2013-03-03 09:15:00
4:35 AM,16.5,13.3,87,30.07,10.0,Calm,Calm,-,N/A,,Clear,0,2013-03-03 09:35:00
4:55 AM,16.7,14.2,90,30.07,10.0,Calm,Calm,-,N/A,,Clear,0,2013-03-03 09:55:00
5:14 AM,16.5,14.0,90,30.07,10.0,Calm,Calm,-,N/A,,Clear,0,2013-03-03 10:14:00
5:35 AM,16.5,13.8,89,30.07,10.0,Calm,Calm,-,N/A,,Scattered Clouds,0,2013-03-03 10:35:00
5:54 AM,15.8,14.0,93,30.07,10.0,Calm,Calm,-,N/A,,Scattered Clouds,0,2013-03-03 10:54:00
6:15 AM,16.0,13.8,91,30.08,10.0,Calm,Calm,-,N/A,,Scattered Clouds,0,2013-03-03 11:15:00
6:35 AM,16.3,14.4,92,30.08,10.0,Calm,Calm,-,N/A,,Mostly Cloudy,0,2013-03-03 11:35:00
6:55 AM,16.7,14.9,93,30.08,10.0,Calm,Calm,-,N/A,,Mostly Cloudy,0,2013-03-03 11:55:00
7:15 AM,17.4,15.4,92,30.09,10.0,Calm,Calm,-,N/A,,Overcast,0,2013-03-03 12:15:00
7:34 AM,18.7,16.2,90,30.09,10.0,Calm,Calm,-,N/A,,Overcast,0,2013-03-03 12:34:00
7:55 AM,20.1,16.0,84,30.10,10.0,Calm,Calm,-,N/A,,Mostly Cloudy,0,2013-03-03 12:55:00
8:15 AM,21.4,14.9,76,30.10,10.0,NE,4.6,-,N/A,,Overcast,40,2013-03-03 13:15:00
8:35 AM,22.1,14.7,73,30.10,10.0,NE,8.1,-,N/A,,Overcast,40,2013-03-03 13:35:00
8:55 AM,22.6,14.0,69,30.10,10.0,NE,6.9,-,N/A,,Overcast,40,2013-03-03 13:55:00
9:15 AM,23.0,14.0,68,30.10,10.0,NE,4.6,-,N/A,,Mostly Cloudy,50,2013-03-03 14:15:00
9:35 AM,24.4,14.2,65,30.10,10.0,NE,4.6,-,N/A,,Mostly Cloudy,50,2013-03-03 14:35:00
9:55 AM,24.6,14.5,66,30.10,10.0,NNE,5.8,-,N/A,,Mostly Cloudy,20,2013-03-03 14:55:00
10:14 AM,25.7,15.4,65,30.10,10.0,NE,4.6,-,N/A,,Mostly Cloudy,40,2013-03-03 15:14:00
10:35 AM,25.9,15.8,66,30.09,10.0,Calm,Calm,-,N/A,,Mostly Cloudy,0,2013-03-03 15:35:00
10:55 AM,27.3,16.2,63,30.09,10.0,Calm,Calm,-,N/A,,Overcast,0,2013-03-03 15:55:00
11:15 AM,27.5,17.6,66,30.09,10.0,North,6.9,-,N/A,,Mostly Cloudy,350,2013-03-03 16:15:00
11:35 AM,29.1,17.1,61,30.08,10.0,WNW,3.5,-,N/A,,Scattered Clouds,300,2013-03-03 16:35:00
11:55 AM,28.9,17.1,61,30.08,10.0,NNW,4.6,-,N/A,,Mostly Cloudy,340,2013-03-03 16:55:00
12:15 PM,28.9,17.4,62,30.08,10.0,NNW,9.2,-,N/A,,Mostly Cloudy,330,2013-03-03 17:15:00
12:35 PM,28.9,16.7,60,30.07,10.0,NW,9.2,-,N/A,,Mostly Cloudy,320,2013-03-03 17:35:00
12:55 PM,29.5,16.2,58,30.07,10.0,NNW,10.4,16.1,N/A,,Mostly Cloudy,330,2013-03-03 17:55:00
1:15 PM,29.1,16.9,60,30.06,10.0,West,11.5,-,N/A,,Overcast,280,2013-03-03 18:15:00
1:35 PM,29.1,16.5,59,30.06,10.0,North,5.8,-,N/A,,Mostly Cloudy,350,2013-03-03 18:35:00
1:55 PM,29.5,14.9,55,30.06,10.0,NW,12.7,16.1,N/A,,Mostly Cloudy,320,2013-03-03 18:55:00
2:15 PM,29.1,15.3,56,30.06,10.0,NNW,10.4,17.3,N/A,,Mostly Cloudy,340,2013-03-03 19:15:00
2:35 PM,28.4,14.9,57,30.05,10.0,NNW,9.2,18.4,N/A,,Mostly Cloudy,340,2013-03-03 19:35:00
2:55 PM,28.4,16.5,61,30.05,10.0,NW,10.4,17.3,N/A,,Mostly Cloudy,310,2013-03-03 19:55:00
3:14 PM,28.4,15.8,59,30.05,10.0,NNW,10.4,18.4,N/A,,Overcast,340,2013-03-03 20:14:00
3:35 PM,28.9,16.3,59,30.05,10.0,NW,11.5,17.3,N/A,,Overcast,310,2013-03-03 20:35:00
3:55 PM,28.9,16.5,60,30.05,10.0,WNW,10.4,-,N/A,,Mostly Cloudy,300,2013-03-03 20:55:00
4:15 PM,29.8,16.3,57,30.05,10.0,NW,10.4,18.4,N/A,,Overcast,310,2013-03-03 21:15:00
4:55 PM,28.2,16.5,62,30.05,10.0,NNW,9.2,-,N/A,,Overcast,330,2013-03-03 21:55:00
5:15 PM,27.9,15.6,60,30.06,10.0,NW,5.8,-,N/A,,Mostly Cloudy,320,2013-03-03 22:15:00
5:35 PM,28.9,16.7,60,30.06,10.0,WNW,9.2,-,N/A,,Overcast,300,2013-03-03 22:35:00
5:54 PM,28.2,16.2,61,30.06,10.0,NW,5.8,-,N/A,,Overcast,310,2013-03-03 22:54:00
6:15 PM,27.5,15.6,61,30.06,10.0,NW,5.8,-,N/A,,Mostly Cloudy,310,2013-03-03 23:15:00
6:35 PM,27.9,17.1,64,30.06,10.0,NW,6.9,-,N/A,,Mostly Cloudy,320,2013-03-03 23:35:00
6:55 PM,27.5,17.1,65,30.07,10.0,NW,6.9,-,N/A,,Overcast,320,2013-03-03 23:55:00
7:15 PM,27.0,16.2,64,30.07,10.0,NNW,5.8,-,N/A,,Mostly Cloudy,340,2013-03-04 00:15:00
7:35 PM,27.3,16.9,65,30.07,10.0,NNW,5.8,-,N/A,,Mostly Cloudy,330,2013-03-04 00:35:00
7:55 PM,27.3,17.1,65,30.07,10.0,NNW,9.2,-,N/A,,Overcast,340,2013-03-04 00:55:00
8:15 PM,27.0,16.5,65,30.08,10.0,North,6.9,-,N/A,,Overcast,350,2013-03-04 01:15:00
8:35 PM,27.1,16.7,65,30.08,10.0,NW,5.8,-,N/A,,Overcast,320,2013-03-04 01:35:00
8:55 PM,27.0,16.3,64,30.08,10.0,NNW,8.1,-,N/A,,Mostly Cloudy,330,2013-03-04 01:55:00
9:14 PM,27.1,16.9,65,30.08,10.0,NNW,4.6,-,N/A,,Mostly Cloudy,330,2013-03-04 02:14:00
9:35 PM,27.0,16.5,65,30.08,10.0,NW,4.6,-,N/A,,Overcast,320,2013-03-04 02:35:00
9:55 PM,27.1,16.9,65,30.08,10.0,NNW,6.9,-,N/A,,Overcast,340,2013-03-04 02:55:00
10:15 PM,27.3,17.6,67,30.07,10.0,North,4.6,-,N/A,,Overcast,350,2013-03-04 03:15:00
10:35 PM,27.0,17.6,68,30.07,10.0,North,4.6,-,N/A,,Overcast,360,2013-03-04 03:35:00
10:55 PM,27.0,17.2,67,30.07,10.0,North,5.8,-,N/A,,Overcast,360,2013-03-04 03:55:00
11:15 PM,26.6,16.9,67,30.08,10.0,NNW,4.6,-,N/A,,Overcast,340,2013-03-04 04:15:00
11:35 PM,26.6,17.6,69,30.09,10.0,North,5.8,-,N/A,,Overcast,10,2013-03-04 04:35:00
11:54 PM,26.4,17.4,69,30.09,10.0,North,6.9,-,N/A,,Overcast,10,2013-03-04 04:54:00